Location: Oshawa
(43.9000°N, 78.8670°W)
Time: 20:51:27
(UTC-04:00)

Cosmos 1805 Rocket - Visible Passes

Search period start: 15 September 2014 00:00
Search period end: 25 September 2014 00:00
Orbit: 607 x 632 km, 82.5° (Epoch: 15 September)

Date Brightness Start Highest point End Pass type
(mag) Time Alt. Az. Time Alt. Az. Time Alt. Az.
15 Sep 4.1 20:27:01 10° N 20:31:06 38° ENE 20:34:22 15° SE visible
15 Sep 6.0 22:05:37 10° NW 22:08:41 19° W 22:11:34 11° SW visible
16 Sep 3.4 20:44:24 10° N 20:48:46 72° E 20:52:30 14° SSE visible
16 Sep 6.7 22:25:24 10° WNW 22:25:58 10° W 22:26:31 10° W visible
17 Sep 4.0 21:02:02 10° NNW 21:06:20 60° W 21:10:35 10° S visible
18 Sep 4.7 19:42:22 10° NNE 19:45:52 23° ENE 19:49:19 10° SE visible
18 Sep 5.3 21:19:55 10° NNW 21:23:47 32° W 21:27:37 10° SSW visible
19 Sep 4.0 19:59:29 10° N 20:03:37 41° ENE 20:07:42 10° SSE visible
19 Sep 6.3 21:38:15 10° NW 21:41:09 18° W 21:44:02 10° SW visible
20 Sep 3.4 20:16:54 10° N 20:21:16 78° E 20:25:35 10° SSE visible
21 Sep 4.3 20:34:33 10° NNW 20:38:48 55° W 20:43:01 10° S visible
22 Sep 5.5 20:52:29 10° NNW 20:56:15 29° W 20:59:59 10° SSW visible
23 Sep 3.9 19:31:56 10° N 19:36:07 44° ENE 19:40:15 10° SSE visible
23 Sep 6.5 21:10:53 10° NW 21:13:36 16° W 21:16:18 10° SW visible
24 Sep 3.5 19:49:22 10° N 19:53:44 84° E 19:58:04 10° S visible
